GIA715 YSSY-WADD

Flight info

Callsign GIA715
Flight time N/A
Altitude 34000
Route RIC H530 IVRAD Q57 DODRO/N0490F360 G326 GUNAM/N0483F380 G326 NYOMA
Aircraft A333/H-SDE3GHIJ2J3J5M1RVWXY/LB2D1

Departure

Time N/A
Airport Sydney Kingsford Smith International Airport (YSSY)

Arrival

Time 2026-05-07 10:27
Airport Denpasar I Gusti Ngurah Rai International Airport (WADD)
Time Latitude Longitude Altitude Speed Heading
2026-05-07 09:39 -10.80854 118.71154 37872 ft 448 kts 296°
2026-05-07 09:39 -10.79320 118.68394 37868 ft 448 kts 296°
2026-05-07 09:40 -10.76247 118.62866 37869 ft 449 kts 296°
2026-05-07 09:40 -10.73166 118.57330 37865 ft 450 kts 296°
2026-05-07 09:41 -10.70082 118.51788 37867 ft 451 kts 296°
2026-05-07 09:41 -10.67018 118.46278 37863 ft 449 kts 295°
2026-05-07 09:41 -10.65851 118.43333 37854 ft 446 kts 280°
2026-05-07 09:42 -10.65242 118.40265 37890 ft 449 kts 283°
2026-05-07 09:42 -10.62630 118.34426 37872 ft 454 kts 295°
2026-05-07 09:43 -10.59510 118.28861 37875 ft 451 kts 297°
2026-05-07 09:43 -10.56343 118.23390 37867 ft 452 kts 297°
2026-05-07 09:44 -10.53142 118.17873 37864 ft 454 kts 297°
2026-05-07 09:44 -10.49910 118.12317 37861 ft 459 kts 297°
2026-05-07 09:45 -10.46664 118.06744 37860 ft 457 kts 297°
2026-05-07 09:45 -10.43439 118.01205 37863 ft 458 kts 297°
2026-05-07 09:46 -10.40202 117.95652 37863 ft 459 kts 297°
2026-05-07 09:46 -10.36958 117.90089 37865 ft 458 kts 297°
2026-05-07 09:47 -10.33709 117.84520 37666 ft 462 kts 297°
2026-05-07 09:47 -10.33187 117.83627 37518 ft 463 kts 297°
2026-05-07 09:47 -10.31536 117.80795 37198 ft 460 kts 297°
2026-05-07 09:47 -10.29906 117.78007 36908 ft 457 kts 297°
2026-05-07 09:48 -10.28289 117.75236 36619 ft 457 kts 297°
2026-05-07 09:48 -10.26668 117.72460 36327 ft 459 kts 297°
2026-05-07 09:48 -10.25038 117.69674 36038 ft 460 kts 297°
2026-05-07 09:48 -10.23410 117.66887 35745 ft 460 kts 297°
2026-05-07 09:49 -10.21777 117.64092 35450 ft 462 kts 297°
2026-05-07 09:49 -10.20145 117.61302 35157 ft 462 kts 297°
2026-05-07 09:49 -10.18510 117.58506 34858 ft 463 kts 297°
2026-05-07 09:49 -10.16850 117.55668 34561 ft 464 kts 297°
2026-05-07 09:50 -10.15211 117.52866 33928 ft 471 kts 297°
2026-05-07 09:50 -10.13526 117.49985 32726 ft 473 kts 297°
2026-05-07 09:50 -10.11885 117.47189 32406 ft 457 kts 297°
2026-05-07 09:50 -10.10270 117.44428 31822 ft 451 kts 297°
2026-05-07 09:51 -10.08674 117.41702 31051 ft 450 kts 297°
2026-05-07 09:51 -10.07083 117.38987 30454 ft 444 kts 297°
2026-05-07 09:51 -10.05513 117.36306 29851 ft 439 kts 297°
2026-05-07 09:51 -10.03956 117.33649 29207 ft 435 kts 298°
2026-05-07 09:52 -10.02417 117.31043 28590 ft 431 kts 298°
2026-05-07 09:52 -10.00896 117.28470 27980 ft 427 kts 298°
2026-05-07 09:52 -9.99369 117.25887 27345 ft 424 kts 298°
2026-05-07 09:52 -9.97877 117.23366 26780 ft 420 kts 298°
2026-05-07 09:53 -9.96382 117.20840 26221 ft 415 kts 298°
2026-05-07 09:53 -9.94909 117.18347 25630 ft 412 kts 298°
2026-05-07 09:53 -9.93441 117.15868 25058 ft 408 kts 298°
2026-05-07 09:53 -9.91984 117.13406 24485 ft 405 kts 298°
2026-05-07 09:54 -9.90546 117.10977 23924 ft 401 kts 298°
2026-05-07 09:54 -9.89113 117.08557 23373 ft 397 kts 298°
2026-05-07 09:54 -9.87703 117.06175 22912 ft 393 kts 298°
2026-05-07 09:54 -9.86284 117.03779 22954 ft 402 kts 299°
2026-05-07 09:55 -9.84819 117.01307 22834 ft 411 kts 299°
2026-05-07 09:55 -9.83342 116.98814 21929 ft 418 kts 299°
2026-05-07 09:55 -9.81838 116.96275 21063 ft 418 kts 300°
2026-05-07 09:55 -9.80386 116.93830 20990 ft 398 kts 299°
2026-05-07 09:56 -9.78993 116.91482 20883 ft 382 kts 299°
2026-05-07 09:56 -9.77622 116.89170 20373 ft 378 kts 299°
2026-05-07 09:56 -9.76283 116.86912 19791 ft 377 kts 300°
2026-05-07 09:56 -9.74928 116.84627 19262 ft 374 kts 300°
2026-05-07 09:57 -9.73606 116.82386 18799 ft 369 kts 298°
2026-05-07 09:57 -9.72405 116.80123 18260 ft 367 kts 297°
2026-05-07 09:57 -9.71201 116.77850 17725 ft 365 kts 297°
2026-05-07 09:57 -9.69995 116.75577 17217 ft 362 kts 297°
2026-05-07 09:58 -9.68807 116.73344 16730 ft 359 kts 298°
2026-05-07 09:58 -9.67621 116.71116 16230 ft 357 kts 298°
2026-05-07 09:58 -9.66448 116.68913 15736 ft 355 kts 298°
2026-05-07 09:58 -9.65292 116.66742 15248 ft 353 kts 298°
2026-05-07 09:59 -9.64124 116.64549 14750 ft 351 kts 298°
2026-05-07 09:59 -9.62973 116.62389 14263 ft 349 kts 298°
2026-05-07 09:59 -9.61827 116.60238 13781 ft 347 kts 298°
2026-05-07 09:59 -9.60688 116.58102 13315 ft 345 kts 298°
2026-05-07 10:00 -9.59535 116.55939 13061 ft 351 kts 298°
2026-05-07 10:00 -9.58349 116.53714 13146 ft 371 kts 298°
2026-05-07 10:00 -9.57089 116.51350 13184 ft 389 kts 298°
2026-05-07 10:00 -9.55796 116.48927 13191 ft 389 kts 298°
2026-05-07 10:01 -9.54514 116.46523 13180 ft 384 kts 298°
2026-05-07 10:01 -9.53262 116.44178 13171 ft 380 kts 298°
2026-05-07 10:01 -9.52009 116.41831 13168 ft 380 kts 298°
2026-05-07 10:01 -9.50747 116.39467 13128 ft 380 kts 298°
2026-05-07 10:02 -9.49480 116.37095 13072 ft 381 kts 298°
2026-05-07 10:02 -9.48219 116.34732 13024 ft 381 kts 298°
2026-05-07 10:02 -9.46959 116.32375 12981 ft 379 kts 298°
2026-05-07 10:02 -9.45710 116.30035 12959 ft 379 kts 298°
2026-05-07 10:03 -9.44448 116.27673 13000 ft 380 kts 298°
2026-05-07 10:03 -9.43203 116.25343 12917 ft 381 kts 298°
2026-05-07 10:03 -9.41978 116.22975 12819 ft 377 kts 294°
2026-05-07 10:03 -9.41344 116.20405 12858 ft 378 kts 274°
2026-05-07 10:04 -9.41353 116.17720 12869 ft 380 kts 269°
2026-05-07 10:04 -9.41358 116.15068 12854 ft 379 kts 270°
2026-05-07 10:04 -9.41331 116.12400 12853 ft 379 kts 271°
2026-05-07 10:04 -9.41290 116.09733 12850 ft 379 kts 271°
2026-05-07 10:05 -9.41244 116.07087 12844 ft 371 kts 271°
2026-05-07 10:05 -9.41196 116.04481 12844 ft 368 kts 271°
2026-05-07 10:05 -9.41148 116.01926 12845 ft 368 kts 271°
2026-05-07 10:05 -9.41098 115.99302 12848 ft 368 kts 271°
2026-05-07 10:06 -9.41049 115.96716 12847 ft 368 kts 271°
2026-05-07 10:06 -9.40999 115.94144 12841 ft 368 kts 271°
2026-05-07 10:06 -9.40949 115.91534 12841 ft 368 kts 271°
2026-05-07 10:06 -9.40899 115.88955 12843 ft 368 kts 271°
2026-05-07 10:07 -9.40848 115.86365 12840 ft 368 kts 271°
2026-05-07 10:07 -9.40798 115.83768 12842 ft 366 kts 271°
2026-05-07 10:07 -9.40748 115.81210 12841 ft 367 kts 271°
2026-05-07 10:07 -9.40697 115.78608 12846 ft 368 kts 271°
2026-05-07 10:08 -9.40646 115.76024 12846 ft 368 kts 271°
2026-05-07 10:08 -9.40595 115.73456 12848 ft 368 kts 271°
2026-05-07 10:08 -9.40543 115.70873 12850 ft 368 kts 271°
2026-05-07 10:08 -9.40492 115.68289 12851 ft 367 kts 271°
2026-05-07 10:09 -9.40415 115.64467 12853 ft 369 kts 271°
2026-05-07 10:09 -9.39990 115.43806 12854 ft 368 kts 271°
2026-05-07 10:09 -9.39880 115.39048 12810 ft 365 kts 271°
2026-05-07 10:09 -9.39842 115.36536 12571 ft 354 kts 271°
2026-05-07 10:10 -9.39798 115.34093 12567 ft 335 kts 271°
2026-05-07 10:10 -9.39754 115.31806 12545 ft 319 kts 271°
2026-05-07 10:10 -9.39712 115.29588 12427 ft 308 kts 271°
2026-05-07 10:10 -9.39670 115.27438 12057 ft 307 kts 271°
2026-05-07 10:11 -9.39627 115.25284 11658 ft 307 kts 271°
2026-05-07 10:11 -9.39584 115.23130 11288 ft 306 kts 271°
2026-05-07 10:11 -9.39540 115.20975 10936 ft 305 kts 271°
2026-05-07 10:11 -9.39497 115.18848 10581 ft 304 kts 271°
2026-05-07 10:12 -9.39454 115.16708 10222 ft 303 kts 271°
2026-05-07 10:12 -9.39410 115.14554 9988 ft 304 kts 271°
2026-05-07 10:12 -9.39368 115.12440 10020 ft 298 kts 271°
2026-05-07 10:12 -9.39326 115.10386 9984 ft 286 kts 271°
2026-05-07 10:13 -9.39065 115.08445 9892 ft 276 kts 290°
2026-05-07 10:13 -9.38042 115.06812 9568 ft 274 kts 317°
2026-05-07 10:13 -9.36486 115.05713 9271 ft 272 kts 332°
2026-05-07 10:13 -9.34819 115.04851 9159 ft 271 kts 335°
2026-05-07 10:14 -9.33068 115.04048 8921 ft 272 kts 338°
2026-05-07 10:14 -9.31326 115.03303 8677 ft 270 kts 339°
2026-05-07 10:14 -9.29593 115.02590 8426 ft 269 kts 340°
2026-05-07 10:14 -9.27840 115.01886 8135 ft 269 kts 340°
2026-05-07 10:15 -9.26100 115.01193 7851 ft 269 kts 340°
2026-05-07 10:15 -9.24302 115.00483 7582 ft 283 kts 340°
2026-05-07 10:15 -9.22465 114.99759 7318 ft 288 kts 340°
2026-05-07 10:15 -9.20588 114.99020 7034 ft 287 kts 340°
2026-05-07 10:16 -9.18718 114.98284 6744 ft 286 kts 341°
2026-05-07 10:16 -9.16862 114.97555 6457 ft 286 kts 341°
2026-05-07 10:16 -9.14986 114.96818 6000 ft 290 kts 341°
2026-05-07 10:16 -9.13073 114.96069 5448 ft 297 kts 341°
2026-05-07 10:17 -9.11120 114.95302 4871 ft 300 kts 341°
2026-05-07 10:17 -9.09201 114.94548 4303 ft 297 kts 341°
2026-05-07 10:17 -9.07277 114.93795 3749 ft 294 kts 341°
2026-05-07 10:17 -9.05373 114.93056 3213 ft 290 kts 343°
2026-05-07 10:18 -9.03445 114.92727 2982 ft 272 kts
2026-05-07 10:18 -9.01545 114.92664 3052 ft 272 kts
2026-05-07 10:18 -8.99640 114.92558 3008 ft 273 kts
2026-05-07 10:18 -8.97710 114.92444 3006 ft 279 kts 360°
2026-05-07 10:19 -8.95750 114.92325 3006 ft 282 kts 360°
2026-05-07 10:19 -8.93760 114.92203 3002 ft 282 kts 360°
2026-05-07 10:19 -8.91804 114.92084 3001 ft 281 kts 360°
2026-05-07 10:19 -8.89829 114.91963 3001 ft 282 kts 360°
2026-05-07 10:20 -8.87874 114.91843 2998 ft 282 kts 360°
2026-05-07 10:20 -8.85905 114.91723 2988 ft 278 kts 360°
2026-05-07 10:20 -8.84029 114.91607 2955 ft 258 kts 360°
2026-05-07 10:20 -8.82291 114.91499 2978 ft 238 kts
2026-05-07 10:21 -8.80690 114.91402 2903 ft 222 kts
2026-05-07 10:21 -8.79211 114.91349 2810 ft 203 kts 11°
2026-05-07 10:21 -8.77978 114.91885 2761 ft 187 kts 48°
2026-05-07 10:21 -8.77208 114.92901 2826 ft 181 kts 65°
2026-05-07 10:22 -8.76721 114.94080 2910 ft 183 kts 73°
2026-05-07 10:22 -8.76370 114.95321 2708 ft 186 kts 77°
2026-05-07 10:22 -8.76083 114.96573 2444 ft 177 kts 79°
2026-05-07 10:22 -8.75836 114.97755 2180 ft 169 kts 80°
2026-05-07 10:23 -8.75608 114.98897 1923 ft 164 kts 81°
2026-05-07 10:23 -8.75468 115.00022 1748 ft 160 kts 90°
2026-05-07 10:23 -8.75439 115.01165 1707 ft 162 kts 90°
2026-05-07 10:23 -8.75399 115.02305 1707 ft 165 kts 89°
2026-05-07 10:24 -8.75354 115.03475 1698 ft 167 kts 89°
2026-05-07 10:24 -8.75308 115.04636 1699 ft 167 kts 89°
2026-05-07 10:24 -8.75262 115.05813 1696 ft 168 kts 89°
2026-05-07 10:24 -8.75164 115.06978 1685 ft 166 kts 79°
2026-05-07 10:25 -8.75002 115.08051 1620 ft 143 kts 88°
2026-05-07 10:25 -8.75041 115.09037 1458 ft 139 kts 96°
2026-05-07 10:25 -8.75119 115.10004 1230 ft 139 kts 94°
2026-05-07 10:25 -8.75066 115.10983 971 ft 140 kts 85°
2026-05-07 10:26 -8.75000 115.11953 707 ft 139 kts 89°
2026-05-07 10:26 -8.74981 115.12928 502 ft 138 kts 91°
2026-05-07 10:26 -8.74956 115.13895 320 ft 139 kts 90°
2026-05-07 10:26 -8.74910 115.14875 149 ft 138 kts 90°
2026-05-07 10:27 -8.74878 115.15831 19 ft 125 kts 86°
2026-05-07 10:27 -8.74850 115.16523 23 ft 62 kts 88°
2026-05-07 10:27 -8.74799 115.16773 23 ft 15 kts 62°
2026-05-07 10:27 -8.74747 115.16849 24 ft 10 kts 32°
2026-05-07 10:28 -8.74701 115.16867 25 ft 5 kts 19°
2026-05-07 10:28 -8.74663 115.16870 25 ft 6 kts 358°
2026-05-07 10:28 -8.74620 115.16869 26 ft 5 kts 358°
2026-05-07 10:28 -8.74582 115.16867 26 ft 5 kts 357°
2026-05-07 10:29 -8.74549 115.16866 27 ft 4 kts 358°
2026-05-07 10:29 -8.74545 115.16866 27 ft 0 kts 358°